Powrót do katalogu

APRIZESAT 3

AktywnyŁącznośćPO
NORAD 35686·PAYLOAD·🇺🇸 United States

Wystrzelony Jul 29, 2009 z Baikonur Cosmodrome

Loading…

Następne Przeloty (najbliższe 24 godziny)

TLE

ŚwieżeSource: Space-Track

Epoka: Sep 13, 2026, 21:40 UTC

1 35686U 09041F   26256.90299819  .00001160  00000-0  10415-3 0  9992
2 35686  98.2180  54.4580 0062216 133.5489 227.0923 14.96449116929644

Śledź APRIZESAT 3 w czasie rzeczywistym z AllMySat

Download on the App Store